CBERS 1 DEB, 30783

Orbit data source: Space-Track

CBERS 1 DEB, 30783 is space debris in SSO originally from a launch on Thu, 14 Oct 1999 UTC launched from the Taiyaun Space Center, China (TSC). Debris objects in space refer to the collection of defunct objects orbiting the Earth. Examples of debris include non-operational satellites, rocket bodies, and fragments generated from explosions, collisions, or faulty payload assembly.

Loading next visibility...
Identifier
30783, 1999-057NS
Orbit
SSO
Country
Flag of CNCN / CHBZ
Flag of BRBR / CHBZ
Related business
Manufacturer
Unknown
Mission
Spacecraft
Bus & Motor
Unknown
Mass
Unknown
Launch date (UTC)
1999-10-14 (26 years ago)
Launch vehicle
Unknown
Launch site
Taiyaun Space Center, China (TSC)
Object type
Payload
Rocket body
Debris
Shape & HBR
Unknown shape, 0.1 m
Radar Cross Section
Small (<0.1 m²)

Expand to show TLE details & history
Last TLE update: 12 hours ago

TLE from 12 hours ago
0 CBERS 1 DEB
1 30783U 99057NS  26093.65115324  .00009355  00000-0  22710-2 0  9994
2 30783  98.2696 229.8381 0036696  76.6189 298.4154 14.52682068   132
Epoch: 2026-04-03T15:37Z
TLE epoch observation values (Epoch: 2026-04-03T15:37:39.639Z)
Latitude
14.47959°
Longitude
161.3013°
Altitude
706.833 km
Speed
7.51 km/s
True Right ascension
15h 10m 47s
True Declination
14° 23' 45"
Sunlit
Object was in full shadow at epoch
Visualization orbit readout
Latitude
Unknown
Longitude
Unknown
Altitude
Unknown
Speed
Unknown
Apparent Right ascension
Unknown
Apparent Declination
Unknown
Sunlit
N/A
Visualization observer readout
Local Sidereal Time
09:51:35
Azimuth
Unknown
Elevation
Unknown
Doppler factor
Unknown
Orbital elements
Apogee altitude
740.021 km
Perigee altitude
687.971 km
Semi-major axis
7,092.133 km
Eccentricity
0.00367
Inclination
98.2696°
RAAN
229.8381°
Arg. of periapsis
76.6189°
True anomaly
298.04475°
Mean anomaly
298.4154°
Eccentric anomaly
298.23016°
Mean motion
3.63394 °/min
Orbital period
99.07 mins
BSTAR
0.002271
Loading maneuver chart data...
Computing Atmospheric mass density...
Loading historical data...
Loading historical data...
Loading historical data...
Loading historical data...
Loading historical data...
Loading historical data...
Loading historical data...

Documentation

Showing up to 5 results
|